Terminal Aerodrome Forecast
Issued by NWS Sterling, VA

Home | Current Version | Previous Version | Text Only | Print | Product List | Glossary On
Versions: 1 2 3 4 5 6 7 8 9 10 11 12 13 14 15 16 17 18 19 20 21 22 23 24 25 26 27 28 29 30
000
FTUS41 KLWX 290853 AAA
TAFBWI
TAF AMD
KBWI 290853Z 2909/3012 30009KT P6SM FEW070
     FM292100 24006KT P6SM FEW250
     FM300100 18005KT P6SM FEW250
     FM300600 19009KT P6SM OVC100=

USA.gov is the U.S. government's official web portal to all federal, state and local government web resources and services.